Weather History for KNQX - May, 2013

Change the Weather History Date:

Tuesday, May 28, 2013

  Actual Average (KEYW) Record (KEYW)
Temperature  
Mean Temperature 78 °F 82 °F  
Max Temperature 82 °F 86 °F 92 °F (1953)
Min Temperature 75 °F 77 °F 68 °F (1916)
Degree Days  
Heating Degree Days 0 0  
Month to date heating degree days 0  
Since 1 July heating degree days 73  
Cooling Degree Days 14 17  
Month to date cooling degree days 426  
Year to date cooling degree days 1380  
Growing Degree Days 28 (Base 50)    
Moisture  
Dew Point 73 °F    
Average Humidity 86    
Maximum Humidity 94    
Minimum Humidity 74    
Precipitation  
Precipitation 1.56 in 0.14 in 2.40 in (2013)
Month to date precipitation 2.57  
Year to date precipitation 10.20  
Snow  
Snow 0.00 in - - ()
Month to date snowfall  
Since 1 July snowfall  
Snow Depth -    
Sea Level Pressure  
Sea Level Pressure 30.02 in    
Wind  
Wind Speed 14 mph (ESE)    
Max Wind Speed 23 mph    
Max Gust Speed 30 mph    
Visibility 7 miles    
Events Rain , Thunderstorm    
T = Trace of Precipitation, MM = Missing Value Source: NWS Daily Summary

Daily Weather History Graph

Daily Weather History Graph

Search for Another Location

Airport or City:

Trip Planner

Search our weather history database for the weather conditions in past years. The results will help you decide how hot, cold, wet, or windy it might be!

Date:

Astronomy

May. 28, 2013 Rise Set
Actual Time 6:38 AM EDT 8:09 PM EDT
Civil Twilight 6:13 AM EDT 8:35 PM EDT
Nautical Twilight 5:43 AM EDT 9:05 PM EDT
Astronomical Twilight 5:11 AM EDT 9:36 PM EDT
Moon 11:45 PM EDT (5/28) 10:15 AM EDT (5/28)
Length of Visible Light 14h 21m
Length of Day
13h 31m
Waning Gibbous, 83% of the Moon is Illuminated
May 28
Waning Gibbous
May 31
Last Quarter
Jun 8
New
Jun 16
First Quarter
Jun 23
Full

Hourly Weather History & Observations

Time (EDT) Temp. Heat Index Dew Point Humidity Pressure Visibility Wind Dir Wind Speed Gust Speed Precip Events Conditions
12:53 AM 78.1 °F - 71.1 °F 79% 30.06 in 10.0 mi East 16.1 mph - N/A   Partly Cloudy
1:49 AM 78.8 °F - 73.4 °F 83% 30.04 in 10.0 mi ESE 9.2 mph - N/A   Mostly Cloudy
1:53 AM 78.1 °F - 73.9 °F 87% 30.03 in 10.0 mi ESE 8.1 mph - N/A   Mostly Cloudy
2:17 AM 78.8 °F - 71.6 °F 78% 30.02 in 10.0 mi ESE 13.8 mph - N/A   Mostly Cloudy
2:24 AM 78.8 °F - 71.6 °F 78% 30.02 in 10.0 mi East 12.7 mph - N/A   Partly Cloudy
2:53 AM 78.1 °F - 72.0 °F 81% 30.00 in 10.0 mi East 13.8 mph - N/A   Clear
3:53 AM 79.0 °F - 72.0 °F 79% 29.99 in 10.0 mi East 18.4 mph - N/A   Scattered Clouds
4:14 AM 78.8 °F - 73.4 °F 83% 29.99 in 6.0 mi East 12.7 mph - 0.01 in Rain Light Rain
4:53 AM 78.1 °F - 73.0 °F 84% 29.99 in 7.0 mi East 13.8 mph - 0.02 in Rain Light Rain
5:17 AM 75.2 °F - 73.4 °F 94% 30.00 in 1.8 mi ESE 15.0 mph 21.9 mph 0.26 in Rain Heavy Rain
5:24 AM 77.0 °F - 73.4 °F 89% 30.00 in 3.0 mi East 16.1 mph 21.9 mph 0.28 in Rain Light Rain
5:36 AM 78.8 °F - 73.4 °F 83% 30.00 in 10.0 mi East 13.8 mph - 0.28 in   Overcast
5:53 AM 77.0 °F - 71.1 °F 82% 30.01 in 10.0 mi East 12.7 mph - 0.28 in   Scattered Clouds
6:53 AM 78.1 °F - 71.1 °F 79% 30.01 in 10.0 mi East 11.5 mph - N/A   Overcast
7:53 AM 79.0 °F - 73.0 °F 82% 30.01 in 10.0 mi East 12.7 mph - N/A   Overcast
8:53 AM 80.1 °F 84.2 °F 73.0 °F 79% 30.03 in 10.0 mi East 11.5 mph - N/A   Overcast
9:53 AM 82.9 °F 89.4 °F 73.9 °F 74% 30.02 in 10.0 mi East 16.1 mph - N/A   Overcast
10:53 AM 79.0 °F - 73.9 °F 84% 30.04 in 10.0 mi SE 12.7 mph - N/A Thunderstorm Thunderstorm
11:07 AM 78.8 °F - 75.2 °F 89% 30.04 in 6.0 mi ESE 10.4 mph - 0.01 in Rain Light Rain
11:53 AM 79.0 °F - 73.9 °F 84% 30.05 in 10.0 mi SSE 23.0 mph 29.9 mph 0.01 in   Overcast
12:03 PM 77.0 °F - 73.4 °F 89% 30.05 in 0.5 mi South 21.9 mph 28.8 mph 0.01 in Rain Heavy Rain
12:17 PM 75.2 °F - 73.4 °F 94% 30.06 in 1.0 mi SSE 12.7 mph 23.0 mph 0.04 in Rain Rain
12:37 PM 75.2 °F - 73.4 °F 94% 30.05 in 0.5 mi SE 8.1 mph - 0.12 in Rain Heavy Rain
12:53 PM 75.9 °F - 73.0 °F 91% 30.05 in 0.5 mi ESE 13.8 mph - 0.20 in Rain Heavy Rain
1:03 PM 75.2 °F - 73.4 °F 94% 30.06 in 1.0 mi ESE 13.8 mph 21.9 mph 0.13 in Rain Rain
1:14 PM 75.2 °F - 73.4 °F 94% 30.05 in 4.0 mi East 9.2 mph - 0.20 in Rain Light Rain
1:26 PM 77.0 °F - 73.4 °F 89% 30.05 in 7.0 mi ESE 19.6 mph 25.3 mph 0.20 in Rain , Thunderstorm Light Thunderstorms and Rain
1:44 PM 78.8 °F - 73.4 °F 83% 30.05 in 10.0 mi ESE 20.7 mph 26.5 mph 0.20 in Rain Light Rain
1:53 PM 78.1 °F - 73.9 °F 87% 30.05 in 10.0 mi ESE 19.6 mph - 0.21 in Rain Light Rain
2:53 PM 78.1 °F - 73.9 °F 87% 30.04 in 5.0 mi ESE 19.6 mph - 0.05 in Rain Light Rain
3:22 PM 77.0 °F - 73.4 °F 89% 30.03 in 10.0 mi SE 15.0 mph - 0.03 in Rain , Thunderstorm Light Thunderstorms and Rain
3:53 PM 77.0 °F - 75.0 °F 94% 30.01 in 10.0 mi ESE 9.2 mph 19.6 mph 0.05 in Rain Light Rain
4:31 PM 77.0 °F - 73.4 °F 89% 30.02 in 7.0 mi ESE 15.0 mph - 0.03 in Rain Light Rain
4:53 PM 78.1 °F - 73.9 °F 87% 30.01 in 10.0 mi ESE 11.5 mph - 0.04 in Rain Light Rain
5:19 PM 78.8 °F - 73.4 °F 83% 30.00 in 10.0 mi ESE 12.7 mph - 0.00 in   Overcast
5:29 PM 78.8 °F - 73.4 °F 83% 30.00 in 10.0 mi ESE 12.7 mph - 0.00 in Rain Light Rain
5:53 PM 79.0 °F - 73.9 °F 84% 29.99 in 10.0 mi ESE 9.2 mph - 0.01 in Rain Light Rain
6:34 PM 77.0 °F - 75.2 °F 94% 30.00 in 10.0 mi East 17.3 mph - 0.00 in Rain Light Rain
6:36 PM 77.0 °F - 75.2 °F 94% 30.00 in 10.0 mi East 16.1 mph - 0.00 in Rain , Thunderstorm Light Thunderstorms and Rain
6:53 PM 77.0 °F - 71.1 °F 82% 30.00 in 10.0 mi East 18.4 mph 23.0 mph 0.00 in Rain , Thunderstorm Light Thunderstorms and Rain
7:07 PM 78.8 °F - 73.4 °F 83% 30.00 in 10.0 mi ESE 17.3 mph - 0.01 in   Overcast
7:34 PM 78.8 °F - 73.4 °F 83% 30.01 in 10.0 mi ESE 12.7 mph - 0.02 in Rain Rain
7:53 PM 77.0 °F - 72.0 °F 84% 30.01 in 10.0 mi East 10.4 mph - 0.05 in Rain Light Rain
8:53 PM 79.0 °F - 73.9 °F 84% 30.02 in 10.0 mi ESE 13.8 mph - 0.01 in   Mostly Cloudy
9:53 PM 79.0 °F - 73.0 °F 82% 30.02 in 10.0 mi ESE 16.1 mph 23.0 mph N/A   Mostly Cloudy
10:00 PM 75.2 °F - 69.8 °F 83% 30.03 in 5.0 mi ESE 15.0 mph 27.6 mph 0.03 in Rain Heavy Rain
10:07 PM 75.2 °F - 71.6 °F 89% 30.03 in 4.0 mi SE 9.2 mph - 0.06 in Rain Rain
10:34 PM 78.8 °F - 73.4 °F 83% 30.02 in 9.0 mi ESE 20.7 mph 25.3 mph 0.07 in   Overcast
10:46 PM 75.2 °F - 71.6 °F 89% 30.02 in 6.0 mi East 11.5 mph - 0.10 in Rain Light Rain
10:53 PM 77.0 °F - 73.0 °F 88% 30.02 in 10.0 mi East 10.4 mph - 0.10 in Rain Light Rain
11:27 PM 75.2 °F - 73.4 °F 94% 30.03 in 2.5 mi SE 15.0 mph 21.9 mph 0.12 in Rain Heavy Rain
11:33 PM 75.2 °F - 73.4 °F 94% 30.04 in 1.2 mi SSE 16.1 mph 25.3 mph 0.31 in Rain Heavy Rain
11:40 PM 75.2 °F - 73.4 °F 94% 30.04 in 1.8 mi SSE 11.5 mph 21.9 mph 0.39 in Rain , Thunderstorm Heavy Thunderstorms and Rain
11:51 PM 75.0 °F - 72.0 °F 90% 30.04 in 2.5 mi SSE 9.2 mph 20.7 mph 0.53 in Rain , Thunderstorm Heavy Thunderstorms and Rain
11:59 PM 75.2 °F - 73.4 °F 94% 30.04 in 5.0 mi SE 16.1 mph 20.7 mph 0.03 in Rain , Thunderstorm Thunderstorms and Rain